Tracking 35274 objects as of 10-Sep-2026
HD Live streaming from Space Station
objects crossing your sky now

NOAA 17 DEB


NOAA 17 DEB is no longer on orbit


NORAD ID: 48174
Int'l Code: 2002-032Q
Launch date: June 24, 2002
Source: United States (US)
Launch site: AIR FORCE WESTERN TEST RANGE (AFWTR)
Decay date: 2024-11-16

Note: This is SATELLITE DEBRIS
Your satellite tracking list
Your tracking list is empty




NASA's NSSDC Master Catalog

Two Line Element Set (TLE):
1 48174U 02032P   24282.28349242  .00552646  00000-0  81209-1 0  9992
2 48174  98.8662 305.2303 0037630  83.5550 276.9937 14.72536988188155
Source of the keplerian elements: AFSPC